Location: Asbacherhof
(48.8543°N, 10.7903°E)
Time: 23:03:35
(UTC+00:00)

Cosmos 2333 Rocket - Pass Details

Date: 26 May 2022
Orbit: 839 x 863 km, 70.8° (Epoch: 29 June)

Event Time Altitude Azimuth Distance (km) Brightness Sun altitude
Exits shadow 00:19:43 12° 253° (WSW) 2,348 4.2 -18.5°
Maximum altitude 00:24:20 31° 313° (NW) 1,452 3.7 -18.3°
Drops below altitude 10° 00:29:20 10° 15° (NNE) 2,481 5.9 -18.1°
Sets 00:32:06 0° 26° (NNE) 3,423 7.1 -17.9°
